| time (UTC) | temp C | wind direction | speed KPH | gust KPH | rain 1hr cm | rain 24hr cm | rain mn cm | humidity % | barometer mb |
| 20260502163054 | 6 | 360 | 9.7 | 20.9 | 0.00 | 0.00 | 0.00 | 50 | 1016.5 |
| 20260502161552 | 5 | 360 | 1.6 | 16.1 | 0.00 | 0.00 | 0.00 | 50 | 1016.5 |
| 20260502151557 | 5 | 360 | 11.3 | 19.3 | 0.00 | 0.00 | 0.00 | 54 | 1016.6 |
| 20260502123024 | 2 | 341 | 9.7 | 20.9 | 0.00 | 0.00 | 0.00 | 76 | 1016.6 |
| 20260502121512 | 2 | 326 | 11.3 | 20.9 | 0.00 | 0.00 | 0.00 | 78 | 1016.7 |
| 20260502114506 | 1 | 339 | 12.9 | 19.3 | 0.00 | 0.00 | 0.00 | 85 | 1016.5 |
| 20260502113002 | 1 | 269 | 4.8 | 9.7 | 0.00 | 0.00 | 0.00 | 89 | 1016.4 |
| 20260502111603 | 1 | 324 | 3.2 | 9.7 | 0.00 | 0.00 | 0.00 | 90 | 1016.4 |
| 20260502110058 | 0 | 310 | 3.2 | 8.0 | 0.00 | 0.00 | 0.00 | 90 | 1016.3 |
| 20260502104556 | 0 | 44 | 1.6 | 4.8 | 0.00 | 0.00 | 0.00 | 91 | 1016.2 |
| 20260502103104 | 0 | 94 | 0.0 | 3.2 | 0.00 | 0.00 | 0.00 | 92 | 1016.2 |
| 20260502101608 | 0 | 94 | 0.0 | 1.6 | 0.00 | 0.00 | 0.00 | 91 | 1016.0 |
| 20260502100118 | 0 | 95 | 0.0 | 0.0 | 0.00 | 0.00 | 0.00 | 90 | 1016.0 |
| 20260502070030 | 2 | 100 | 0.0 | 0.0 | 0.00 | 0.00 | 0.00 | 85 | 1015.5 |
| 20260502064529 | 2 | 101 | 0.0 | 3.2 | 0.00 | 0.00 | 0.00 | 85 | 1015.6 |
| 20260502063028 | 2 | 101 | 1.6 | 4.8 | 0.00 | 0.00 | 0.00 | 84 | 1015.7 |
| 20260502061533 | 2 | 99 | 1.6 | 4.8 | 0.00 | 0.00 | 0.00 | 83 | 1015.8 |
| 20260502060023 | 2 | 104 | 1.6 | 4.8 | 0.00 | 0.00 | 0.00 | 82 | 1016.0 |
| 20260502054522 | 2 | 101 | 0.0 | 3.2 | 0.00 | 0.00 | 0.00 | 81 | 1016.2 |
| 20260502053021 | 2 | 102 | 3.2 | 6.4 | 0.00 | 0.00 | 0.00 | 81 | 1016.1 |
| 20260502051523 | 2 | 83 | 4.8 | 9.7 | 0.00 | 0.00 | 0.00 | 81 | 1016.0 |
| 20260502050015 | 2 | 85 | 3.2 | 11.3 | 0.00 | 0.00 | 0.00 | 81 | 1015.7 |
| 20260502044513 | 2 | 76 | 3.2 | 9.7 | 0.00 | 0.00 | 0.00 | 80 | 1015.6 |
| 20260502043009 | 3 | 101 | 1.6 | 4.8 | 0.00 | 0.00 | 0.00 | 79 | 1015.5 |
| 20260502041517 | 3 | 94 | 0.0 | 4.8 | 0.00 | 0.00 | 0.00 | 78 | 1015.4 |
| 20260502040012 | 3 | 94 | 0.0 | 4.8 | 0.00 | 0.00 | 0.00 | 78 | 1015.4 |
| 20260502034505 | 3 | 94 | 1.6 | 4.8 | 0.00 | 0.00 | 0.00 | 78 | 1015.2 |
| 20260502033003 | 3 | 94 | 1.6 | 4.8 | 0.00 | 0.00 | 0.00 | 78 | 1015.2 |
| 20260502031502 | 3 | 94 | 0.0 | 4.8 | 0.00 | 0.00 | 0.00 | 77 | 1015.0 |
| 20260502030000 | 3 | 94 | 1.6 | 6.4 | 0.00 | 0.00 | 0.00 | 76 | 1015.1 |
| 20260502024607 | 3 | 90 | 3.2 | 4.8 | 0.00 | 0.00 | 0.00 | 76 | 1015.2 |
| 20260502023100 | 3 | 91 | 1.6 | 11.3 | 0.00 | 0.00 | 0.00 | 75 | 1015.1 |
| 20260502021605 | 3 | 92 | 1.6 | 6.4 | 0.00 | 0.00 | 0.00 | 74 | 1015.1 |
| 20260502020056 | 4 | 82 | 1.6 | 14.5 | 0.00 | 0.00 | 0.00 | 74 | 1014.9 |
| 20260502014555 | 4 | 360 | 4.8 | 14.5 | 0.00 | 0.00 | 0.00 | 71 | 1014.8 |
| 20260502013053 | 5 | 360 | 11.3 | 22.5 | 0.00 | 0.00 | 0.00 | 68 | 1014.5 |
| 20260502011551 | 5 | 360 | 4.8 | 14.5 | 0.00 | 0.00 | 0.00 | 66 | 1014.3 |
| 20260502010057 | 5 | 360 | 3.2 | 6.4 | 0.00 | 0.00 | 0.00 | 70 | 1014.1 |
| 20260502004553 | 5 | 360 | 1.6 | 6.4 | 0.00 | 0.00 | 0.00 | 66 | 1013.9 |
| 20260502003048 | 5 | 360 | 3.2 | 8.0 | 0.00 | 0.00 | 0.00 | 67 | 1013.8 |
| 20260502001546 | 5 | 360 | 4.8 | 8.0 | 0.00 | 0.00 | 0.00 | 64 | 1013.8 |
| 20260502000045 | 6 | 360 | 6.4 | 14.5 | 0.00 | 0.00 | 0.00 | 64 | 1013.7 |
| 20260501234546 | 6 | 360 | 4.8 | 14.5 | 0.00 | 0.00 | 0.00 | 64 | 1013.7 |
| 20260501233043 | 6 | 360 | 3.2 | 16.1 | 0.00 | 0.00 | 0.00 | 64 | 1013.6 |
| 20260501231543 | 6 | 360 | 8.0 | 14.5 | 0.00 | 0.00 | 0.00 | 63 | 1013.5 |
| 20260501230056 | 6 | 360 | 8.0 | 19.3 | 0.00 | 0.00 | 0.00 | 63 | 1013.5 |
| 20260501224541 | 6 | 360 | 12.9 | 19.3 | 0.00 | 0.00 | 0.00 | 61 | 1013.5 |
| 20260501223040 | 6 | 360 | 11.3 | 20.9 | 0.00 | 0.00 | 0.00 | 60 | 1013.5 |
| 20260501221540 | 7 | 360 | 4.8 | 19.3 | 0.00 | 0.00 | 0.00 | 60 | 1013.4 |
| 20260501220041 | 7 | 360 | 11.3 | 20.9 | 0.00 | 0.00 | 0.00 | 60 | 1013.3 |
| 20260501214549 | 7 | 360 | 4.8 | 16.1 | 0.00 | 0.00 | 0.00 | 60 | 1013.1 |
| 20260501213036 | 7 | 360 | 9.7 | 22.5 | 0.00 | 0.00 | 0.00 | 58 | 1013.0 |
| 20260501211539 | 7 | 360 | 12.9 | 19.3 | 0.00 | 0.00 | 0.00 | 59 | 1013.0 |
| 20260501210041 | 7 | 360 | 6.4 | 19.3 | 0.00 | 0.00 | 0.00 | 58 | 1012.8 |
| 20260501204557 | 7 | 360 | 8.0 | 17.7 | 0.00 | 0.00 | 0.00 | 57 | 1012.7 |
| 20260501203032 | 8 | 360 | 8.0 | 17.7 | 0.00 | 0.00 | 0.00 | 57 | 1012.7 |
| 20260501201532 | 7 | 360 | 6.4 | 19.3 | 0.00 | 0.00 | 0.00 | 56 | 1012.7 |
| 20260501200031 | 7 | 360 | 6.4 | 17.7 | 0.00 | 0.00 | 0.00 | 56 | 1012.7 |
| 20260501194532 | 7 | 360 | 11.3 | 20.9 | 0.00 | 0.00 | 0.00 | 57 | 1012.6 |
| 20260501193031 | 7 | 360 | 8.0 | 16.1 | 0.00 | 0.00 | 0.00 | 55 | 1012.6 |
| 20260501191528 | 7 | 360 | 6.4 | 22.5 | 0.00 | 0.00 | 0.00 | 59 | 1012.7 |
| 20260501190026 | 7 | 360 | 12.9 | 20.9 | 0.00 | 0.00 | 0.00 | 57 | 1012.5 |
| 20260501184527 | 7 | 360 | 11.3 | 17.7 | 0.00 | 0.00 | 0.00 | 59 | 1012.5 |
| 20260501183030 | 7 | 360 | 9.7 | 19.3 | 0.00 | 0.00 | 0.00 | 58 | 1012.3 |
| 20260501181530 | 7 | 360 | 12.9 | 17.7 | 0.00 | 0.00 | 0.00 | 57 | 1012.3 |
| 20260501180033 | 7 | 360 | 9.7 | 19.3 | 0.00 | 0.00 | 0.00 | 59 | 1012.2 |
| 20260501174537 | 7 | 360 | 6.4 | 22.5 | 0.00 | 0.00 | 0.00 | 60 | 1012.4 |
| 20260501173024 | 7 | 360 | 3.2 | 16.1 | 0.00 | 0.00 | 0.00 | 59 | 1012.4 |